,,PressureMeas_1m,,PRMeasQMR101_1,,RHStat155_1m_1,,SRMeasQMS101R_1m,,TAStat155_1m_1,,GenWind_1,,GenWind_1,
2019-08-11, 00:00:06,VALID,918.048,VALID,0.0,VALID,99.358,VALID,0.016,VALID,19.319,VALID,338.0,VALID,0.0,
2019-08-11, 00:01:06,VALID,918.02,VALID,0.0,VALID,99.381,VALID,0.007,VALID,19.384,VALID,334.0,VALID,0.0,
2019-08-11, 00:02:06,VALID,918.025,VALID,0.0,VALID,99.422,VALID,0.021,VALID,19.454,VALID,334.0,VALID,0.0,
2019-08-11, 00:03:06,VALID,918.011,VALID,0.0,VALID,99.443,VALID,0.001,VALID,19.506,VALID,340.0,VALID,0.0,
2019-08-11, 00:04:06,VALID,917.986,VALID,0.0,VALID,99.402,VALID,0.018,VALID,19.424,VALID,359.0,VALID,0.0,
2019-08-11, 00:05:06,VALID,918.002,VALID,0.0,VALID,99.331,VALID,0.013,VALID,19.346,VALID,10.0,VALID,0.0,
2019-08-11, 00:06:06,VALID,918.041,VALID,0.0,VALID,99.373,VALID,0.023,VALID,19.389,VALID,356.0,VALID,0.0,
2019-08-11, 00:07:06,VALID,918.111,VALID,0.0,VALID,99.372,VALID,0.013,VALID,19.39,VALID,342.0,VALID,0.0,
2019-08-11, 00:08:06,VALID,918.102,VALID,0.0,VALID,99.372,VALID,0.017,VALID,19.387,VALID,342.0,VALID,0.0,
2019-08-11, 00:09:06,VALID,918.067,VALID,0.0,VALID,99.366,VALID,0.011,VALID,19.378,VALID,1.0,VALID,0.0,
2019-08-11, 00:10:06,VALID,918.033,VALID,0.0,VALID,99.374,VALID,0.016,VALID,19.382,VALID,11.0,VALID,0.0,
2019-08-11, 00:11:06,VALID,918.027,VALID,0.0,VALID,99.385,VALID,0.008,VALID,19.408,VALID,346.0,VALID,0.0,
2019-08-11, 00:12:06,VALID,918.011,VALID,0.0,VALID,99.418,VALID,0.015,VALID,19.429,VALID,306.0,VALID,0.0,
2019-08-11, 00:13:06,VALID,918.021,VALID,0.0,VALID,99.39,VALID,0.005,VALID,19.445,VALID,290.0,VALID,0.0,
2019-08-11, 00:14:06,VALID,918.018,VALID,0.0,VALID,99.433,VALID,0.012,VALID,19.46,VALID,303.0,VALID,0.0,
2019-08-11, 00:15:06,VALID,917.977,VALID,0.0,VALID,99.441,VALID,-0.012,VALID,19.468,VALID,26.0,VALID,0.0,
2019-08-11, 00:16:06,VALID,917.941,VALID,0.0,VALID,99.442,VALID,0.002,VALID,19.482,VALID,27.0,VALID,0.0,
2019-08-11, 00:17:06,VALID,917.953,VALID,0.0,VALID,99.432,VALID,-0.01,VALID,19.436,VALID,1.0,VALID,0.0,
2019-08-11, 00:18:06,VALID,917.95,VALID,0.0,VALID,99.439,VALID,-0.005,VALID,19.424,VALID,312.0,VALID,0.0,
2019-08-11, 00:19:06,VALID,917.957,VALID,0.0,VALID,99.451,VALID,0.01,VALID,19.44,VALID,311.0,VALID,0.0,
2019-08-11, 00:20:06,VALID,917.905,VALID,0.0,VALID,99.472,VALID,0.006,VALID,19.465,VALID,42.0,VALID,0.0,
2019-08-11, 00:21:06,VALID,917.874,VALID,0.0,VALID,99.479,VALID,0.014,VALID,19.459,VALID,30.0,VALID,0.0,
2019-08-11, 00:22:06,VALID,917.878,VALID,0.0,VALID,99.465,VALID,-0.002,VALID,19.413,VALID,7.0,VALID,0.0,
2019-08-11, 00:23:06,VALID,917.878,VALID,0.0,VALID,99.46,VALID,-0.01,VALID,19.41,VALID,33.0,VALID,0.0,
2019-08-11, 00:24:06,VALID,917.892,VALID,0.0,VALID,99.465,VALID,-0.011,VALID,19.425,VALID,167.0,VALID,0.0,
2019-08-11, 00:25:06,VALID,917.871,VALID,0.0,VALID,99.496,VALID,-0.002,VALID,19.468,VALID,164.0,VALID,0.0,
2019-08-11, 00:26:06,VALID,917.829,VALID,0.0,VALID,99.497,VALID,0.009,VALID,19.499,VALID,58.0,VALID,0.0,
2019-08-11, 00:27:06,VALID,917.792,VALID,0.0,VALID,99.505,VALID,0.006,VALID,19.495,VALID,39.0,VALID,0.0,
2019-08-11, 00:28:06,VALID,917.804,VALID,0.0,VALID,99.494,VALID,0.003,VALID,19.496,VALID,39.0,VALID,0.0,
2019-08-11, 00:29:06,VALID,917.813,VALID,0.0,VALID,99.497,VALID,0.013,VALID,19.485,VALID,39.0,VALID,0.0,
2019-08-11, 00:30:06,VALID,917.791,VALID,0.0,VALID,99.485,VALID,0.016,VALID,19.485,VALID,39.0,VALID,0.0,
2019-08-11, 00:31:06,VALID,917.732,VALID,0.0,VALID,99.469,VALID,-0.0,VALID,19.455,VALID,39.0,VALID,0.0,
2019-08-11, 00:32:06,VALID,917.73,VALID,0.0,VALID,99.463,VALID,0.002,VALID,19.423,VALID,39.0,VALID,0.0,
2019-08-11, 00:33:06,VALID,917.718,VALID,0.0,VALID,99.448,VALID,0.006,VALID,19.407,VALID,39.0,VALID,0.0,
2019-08-11, 00:34:06,VALID,917.724,VALID,0.0,VALID,99.449,VALID,-0.001,VALID,19.425,VALID,40.0,VALID,0.0,
2019-08-11, 00:35:06,VALID,917.689,VALID,0.0,VALID,99.469,VALID,0.013,VALID,19.458,VALID,56.0,VALID,0.0,
2019-08-11, 00:36:06,VALID,917.658,VALID,0.0,VALID,99.482,VALID,-0.002,VALID,19.466,VALID,39.0,VALID,0.0,
2019-08-11, 00:37:06,VALID,917.653,VALID,0.0,VALID,99.473,VALID,-0.001,VALID,19.43,VALID,55.0,VALID,0.0,
2019-08-11, 00:38:06,VALID,917.659,VALID,0.0,VALID,99.433,VALID,-0.002,VALID,19.405,VALID,31.0,VALID,0.0,
2019-08-11, 00:39:06,VALID,917.644,VALID,0.0,VALID,99.439,VALID,0.017,VALID,19.398,VALID,34.0,VALID,0.0,
2019-08-11, 00:40:06,VALID,917.628,VALID,0.0,VALID,99.452,VALID,0.011,VALID,19.419,VALID,34.0,VALID,0.0,
2019-08-11, 00:41:06,VALID,917.637,VALID,0.0,VALID,99.462,VALID,-0.006,VALID,19.437,VALID,34.0,VALID,0.0,
2019-08-11, 00:42:06,VALID,917.627,VALID,0.0,VALID,99.464,VALID,0.009,VALID,19.449,VALID,34.0,VALID,0.0,
2019-08-11, 00:43:06,VALID,917.613,VALID,0.0,VALID,99.457,VALID,0.009,VALID,19.448,VALID,22.0,VALID,0.0,
2019-08-11, 00:44:06,VALID,917.61,VALID,0.0,VALID,99.497,VALID,0.01,VALID,19.482,VALID,80.0,VALID,0.0,
2019-08-11, 00:45:06,VALID,917.568,VALID,0.0,VALID,99.477,VALID,0.015,VALID,19.51,VALID,67.0,VALID,0.0,
2019-08-11, 00:46:06,VALID,917.531,VALID,0.0,VALID,99.495,VALID,0.013,VALID,19.537,VALID,67.0,VALID,0.0,
2019-08-11, 00:47:06,VALID,917.507,VALID,0.0,VALID,99.482,VALID,0.006,VALID,19.559,VALID,50.0,VALID,0.0,
2019-08-11, 00:48:06,VALID,917.478,VALID,0.0,VALID,99.489,VALID,0.009,VALID,19.561,VALID,5.0,VALID,0.0,
2019-08-11, 00:49:06,VALID,917.477,VALID,0.0,VALID,99.483,VALID,-0.003,VALID,19.543,VALID,21.0,VALID,0.0,
2019-08-11, 00:50:06,VALID,917.471,VALID,0.0,VALID,99.452,VALID,0.009,VALID,19.495,VALID,22.0,VALID,0.0,
2019-08-11, 00:51:06,VALID,917.509,VALID,0.0,VALID,99.442,VALID,-0.002,VALID,19.498,VALID,10.0,VALID,0.0,
2019-08-11, 00:52:06,VALID,917.477,VALID,0.0,VALID,99.453,VALID,-0.007,VALID,19.489,VALID,21.0,VALID,0.0,
2019-08-11, 00:53:06,VALID,917.461,VALID,0.0,VALID,99.423,VALID,-0.02,VALID,19.466,VALID,9.0,VALID,0.0,
2019-08-11, 00:54:06,VALID,917.466,VALID,0.0,VALID,99.43,VALID,-0.004,VALID,19.483,VALID,22.0,VALID,0.0,
2019-08-11, 00:55:06,VALID,917.481,VALID,0.0,VALID,99.44,VALID,-0.015,VALID,19.506,VALID,37.0,VALID,0.0,
2019-08-11, 00:56:06,VALID,917.479,VALID,0.0,VALID,99.467,VALID,-0.033,VALID,19.532,VALID,19.0,VALID,0.0,
2019-08-11, 00:57:06,VALID,917.474,VALID,0.0,VALID,99.448,VALID,-0.022,VALID,19.526,VALID,10.0,VALID,0.0,
2019-08-11, 00:58:06,VALID,917.484,VALID,0.0,VALID,99.443,VALID,-0.019,VALID,19.514,VALID,2.0,VALID,0.0,
2019-08-11, 00:59:06,VALID,917.466,VALID,0.0,VALID,99.449,VALID,-0.009,VALID,19.52,VALID,4.0,VALID,0.0,
2019-08-11, 01:00:06,VALID,917.453,VALID,0.0,VALID,99.435,VALID,-0.02,VALID,19.52,VALID,25.0,VALID,0.0,
2019-08-11, 01:01:06,VALID,917.459,VALID,0.0,VALID,99.452,VALID,-0.017,VALID,19.534,VALID,18.0,VALID,0.0,
2019-08-11, 01:02:06,VALID,917.452,VALID,0.0,VALID,99.427,VALID,-0.001,VALID,19.53,VALID,19.0,VALID,0.0,
2019-08-11, 01:03:06,VALID,917.424,VALID,0.0,VALID,99.447,VALID,-0.002,VALID,19.559,VALID,24.0,VALID,0.0,
2019-08-11, 01:04:06,VALID,917.402,VALID,0.0,VALID,99.445,VALID,-0.009,VALID,19.554,VALID,18.0,VALID,0.0,
2019-08-11, 01:05:06,VALID,917.402,VALID,0.0,VALID,99.445,VALID,-0.032,VALID,19.554,VALID,331.0,VALID,0.0,
2019-08-11, 01:06:06,VALID,917.416,VALID,0.0,VALID,99.419,VALID,-0.028,VALID,19.54,VALID,333.0,VALID,0.0,
2019-08-11, 01:07:06,VALID,917.373,VALID,0.0,VALID,99.392,VALID,-0.029,VALID,19.508,VALID,354.0,VALID,0.0,
2019-08-11, 01:08:06,VALID,917.31,VALID,0.0,VALID,99.386,VALID,-0.016,VALID,19.484,VALID,360.0,VALID,0.0,
2019-08-11, 01:09:06,VALID,917.279,VALID,0.0,VALID,99.399,VALID,-0.02,VALID,19.472,VALID,356.0,VALID,0.0,
2019-08-11, 01:10:06,VALID,917.271,VALID,0.0,VALID,99.415,VALID,-0.025,VALID,19.483,VALID,1.0,VALID,0.0,
2019-08-11, 01:11:06,VALID,917.258,VALID,0.0,VALID,99.431,VALID,-0.021,VALID,19.507,VALID,350.0,VALID,0.0,
2019-08-11, 01:12:06,VALID,917.243,VALID,0.0,VALID,99.426,VALID,-0.003,VALID,19.478,VALID,360.0,VALID,0.0,
2019-08-11, 01:13:06,VALID,917.205,VALID,0.0,VALID,99.443,VALID,-0.017,VALID,19.493,VALID,356.0,VALID,0.0,
2019-08-11, 01:14:06,VALID,917.183,VALID,0.0,VALID,99.442,VALID,-0.024,VALID,19.485,VALID,350.0,VALID,0.0,
2019-08-11, 01:15:06,VALID,917.142,VALID,0.0,VALID,99.406,VALID,-0.011,VALID,19.413,VALID,350.0,VALID,0.0,
2019-08-11, 01:16:06,VALID,917.146,VALID,0.0,VALID,99.424,VALID,-0.016,VALID,19.39,VALID,346.0,VALID,0.0,
2019-08-11, 01:17:06,VALID,917.135,VALID,0.0,VALID,99.441,VALID,-0.017,VALID,19.38,VALID,356.0,VALID,0.0,
2019-08-11, 01:18:06,VALID,917.112,VALID,0.0,VALID,99.427,VALID,-0.013,VALID,19.359,VALID,1.0,VALID,0.0,
2019-08-11, 01:19:06,VALID,917.106,VALID,0.0,VALID,99.457,VALID,-0.015,VALID,19.362,VALID,3.0,VALID,0.0,
2019-08-11, 01:20:06,VALID,917.123,VALID,0.0,VALID,99.458,VALID,-0.023,VALID,19.359,VALID,354.0,VALID,0.0,
2019-08-11, 01:21:06,VALID,917.118,VALID,0.0,VALID,99.456,VALID,-0.019,VALID,19.361,VALID,19.0,VALID,0.0,
2019-08-11, 01:22:06,VALID,917.122,VALID,0.0,VALID,99.488,VALID,-0.035,VALID,19.405,VALID,358.0,VALID,0.0,
2019-08-11, 01:23:06,VALID,917.08,VALID,0.0,VALID,99.532,VALID,-0.021,VALID,19.443,VALID,352.0,VALID,0.0,
2019-08-11, 01:24:06,VALID,917.07,VALID,0.0,VALID,99.502,VALID,-0.001,VALID,19.431,VALID,354.0,VALID,0.0,
2019-08-11, 01:25:06,VALID,917.06,VALID,0.0,VALID,99.498,VALID,-0.02,VALID,19.421,VALID,358.0,VALID,0.0,
2019-08-11, 01:26:06,VALID,917.048,VALID,0.0,VALID,99.521,VALID,-0.007,VALID,19.44,VALID,347.0,VALID,0.0,
2019-08-11, 01:27:06,VALID,917.032,VALID,0.0,VALID,99.518,VALID,-0.014,VALID,19.444,VALID,332.0,VALID,0.0,
2019-08-11, 01:28:06,VALID,917.013,VALID,0.0,VALID,99.497,VALID,-0.009,VALID,19.386,VALID,358.0,VALID,0.0,
2019-08-11, 01:29:06,VALID,917.002,VALID,0.0,VALID,99.501,VALID,-0.018,VALID,19.36,VALID,331.0,VALID,0.0,
2019-08-11, 01:30:06,VALID,916.982,VALID,0.0,VALID,99.524,VALID,-0.016,VALID,19.413,VALID,18.0,VALID,0.0,
2019-08-11, 01:31:06,VALID,916.968,VALID,0.0,VALID,99.538,VALID,-0.013,VALID,19.475,VALID,7.0,VALID,0.0,
2019-08-11, 01:32:06,VALID,916.957,VALID,0.0,VALID,99.565,VALID,-0.025,VALID,19.507,VALID,5.0,VALID,0.0,
2019-08-11, 01:33:06,VALID,916.934,VALID,0.0,VALID,99.568,VALID,-0.015,VALID,19.469,VALID,4.0,VALID,0.0,
2019-08-11, 01:34:06,VALID,916.929,VALID,0.0,VALID,99.543,VALID,0.006,VALID,19.469,VALID,27.0,VALID,0.0,
2019-08-11, 01:35:06,VALID,916.935,VALID,0.0,VALID,99.581,VALID,-0.015,VALID,19.494,VALID,21.0,VALID,0.0,
2019-08-11, 01:36:06,VALID,916.922,VALID,0.0,VALID,99.575,VALID,-0.008,VALID,19.515,VALID,16.0,VALID,0.0,
2019-08-11, 01:37:06,VALID,916.95,VALID,0.0,VALID,99.549,VALID,-0.012,VALID,19.478,VALID,359.0,VALID,0.0,
2019-08-11, 01:38:06,VALID,916.961,VALID,0.0,VALID,99.556,VALID,-0.014,VALID,19.456,VALID,359.0,VALID,0.0,
2019-08-11, 01:39:06,VALID,916.969,VALID,0.0,VALID,99.57,VALID,-0.006,VALID,19.468,VALID,338.0,VALID,0.0,
2019-08-11, 01:40:06,VALID,916.957,VALID,0.0,VALID,99.574,VALID,-0.022,VALID,19.491,VALID,7.0,VALID,0.0,
2019-08-11, 01:41:06,VALID,916.942,VALID,0.0,VALID,99.581,VALID,-0.018,VALID,19.522,VALID,14.0,VALID,0.0,
2019-08-11, 01:42:06,VALID,916.899,VALID,0.0,VALID,99.592,VALID,-0.014,VALID,19.535,VALID,20.0,VALID,0.0,
2019-08-11, 01:43:06,VALID,916.859,VALID,0.0,VALID,99.575,VALID,-0.019,VALID,19.53,VALID,12.0,VALID,0.0,
2019-08-11, 01:44:06,VALID,916.87,VALID,0.0,VALID,99.579,VALID,-0.028,VALID,19.519,VALID,16.0,VALID,0.0,
2019-08-11, 01:45:06,VALID,916.888,VALID,0.0,VALID,99.569,VALID,-0.011,VALID,19.531,VALID,12.0,VALID,0.0,
2019-08-11, 01:46:06,VALID,916.911,VALID,0.0,VALID,99.594,VALID,-0.019,VALID,19.556,VALID,325.0,VALID,0.0,
2019-08-11, 01:47:06,VALID,916.891,VALID,0.0,VALID,99.59,VALID,-0.006,VALID,19.565,VALID,11.0,VALID,0.0,
2019-08-11, 01:48:06,VALID,916.881,VALID,0.0,VALID,99.582,VALID,-0.024,VALID,19.566,VALID,334.0,VALID,0.0,
2019-08-11, 01:49:06,VALID,916.866,VALID,0.0,VALID,99.586,VALID,0.009,VALID,19.551,VALID,349.0,VALID,0.0,
2019-08-11, 01:50:06,VALID,916.865,VALID,0.0,VALID,99.58,VALID,0.032,VALID,19.507,VALID,357.0,VALID,0.0,
2019-08-11, 01:51:06,VALID,916.855,VALID,0.0,VALID,99.551,VALID,0.024,VALID,19.497,VALID,4.0,VALID,0.0,
2019-08-11, 01:52:06,VALID,916.83,VALID,0.0,VALID,99.562,VALID,0.023,VALID,19.492,VALID,2.0,VALID,0.0,
2019-08-11, 01:53:06,VALID,916.85,VALID,0.0,VALID,99.554,VALID,0.027,VALID,19.497,VALID,11.0,VALID,0.0,
2019-08-11, 01:54:06,VALID,916.844,VALID,0.0,VALID,99.57,VALID,0.017,VALID,19.512,VALID,1.0,VALID,0.0,
2019-08-11, 01:55:06,VALID,916.852,VALID,0.0,VALID,99.56,VALID,0.012,VALID,19.474,VALID,353.0,VALID,0.0,
2019-08-11, 01:56:06,VALID,916.873,VALID,0.0,VALID,99.58,VALID,0.006,VALID,19.465,VALID,343.0,VALID,0.0,
2019-08-11, 01:57:06,VALID,916.87,VALID,0.0,VALID,99.601,VALID,0.024,VALID,19.476,VALID,352.0,VALID,0.0,
2019-08-11, 01:58:06,VALID,916.886,VALID,0.0,VALID,99.569,VALID,0.013,VALID,19.472,VALID,2.0,VALID,0.0,
2019-08-11, 01:59:06,VALID,916.881,VALID,0.0,VALID,99.588,VALID,0.012,VALID,19.478,VALID,358.0,VALID,0.0,
2019-08-11, 02:00:06,VALID,916.903,VALID,0.0,VALID,99.584,VALID,0.013,VALID,19.457,VALID,335.0,VALID,0.0,
2019-08-11, 02:01:06,VALID,916.945,VALID,0.0,VALID,99.575,VALID,0.01,VALID,19.43,VALID,338.0,VALID,0.0,
2019-08-11, 02:02:06,VALID,916.929,VALID,0.0,VALID,99.559,VALID,0.029,VALID,19.399,VALID,359.0,VALID,0.0,
2019-08-11, 02:03:06,VALID,916.938,VALID,0.0,VALID,99.546,VALID,0.016,VALID,19.358,VALID,350.0,VALID,0.0,
2019-08-11, 02:04:06,VALID,916.926,VALID,0.0,VALID,99.552,VALID,-0.013,VALID,19.381,VALID,353.0,VALID,0.0,
2019-08-11, 02:05:06,VALID,916.893,VALID,0.0,VALID,99.553,VALID,0.011,VALID,19.359,VALID,355.0,VALID,0.0,
2019-08-11, 02:06:06,VALID,916.855,VALID,0.0,VALID,99.551,VALID,0.025,VALID,19.366,VALID,349.0,VALID,0.0,
2019-08-11, 02:07:06,VALID,916.867,VALID,0.0,VALID,99.571,VALID,0.01,VALID,19.376,VALID,344.0,VALID,0.0,
2019-08-11, 02:08:06,VALID,916.873,VALID,0.0,VALID,99.541,VALID,0.01,VALID,19.349,VALID,356.0,VALID,0.0,
2019-08-11, 02:09:06,VALID,916.886,VALID,0.0,VALID,99.558,VALID,0.021,VALID,19.344,VALID,346.0,VALID,0.0,
2019-08-11, 02:10:06,VALID,916.82,VALID,0.0,VALID,99.562,VALID,0.024,VALID,19.359,VALID,5.0,VALID,0.0,
2019-08-11, 02:11:06,VALID,916.784,VALID,0.0,VALID,99.551,VALID,0.023,VALID,19.343,VALID,4.0,VALID,0.0,
2019-08-11, 02:12:06,VALID,916.775,VALID,0.0,VALID,99.555,VALID,0.017,VALID,19.337,VALID,341.0,VALID,0.0,
2019-08-11, 02:13:06,VALID,916.756,VALID,0.0,VALID,99.553,VALID,0.023,VALID,19.361,VALID,320.0,VALID,0.0,
2019-08-11, 02:14:06,VALID,916.762,VALID,0.0,VALID,99.566,VALID,0.004,VALID,19.351,VALID,358.0,VALID,0.0,
2019-08-11, 02:15:06,VALID,916.793,VALID,0.0,VALID,99.541,VALID,-0.003,VALID,19.321,VALID,349.0,VALID,0.0,
2019-08-11, 02:16:06,VALID,916.774,VALID,0.0,VALID,99.531,VALID,0.008,VALID,19.33,VALID,349.0,VALID,0.0,
2019-08-11, 02:17:07,VALID,916.733,VALID,0.0,VALID,99.545,VALID,0.004,VALID,19.349,VALID,352.0,VALID,0.0,
2019-08-11, 02:18:06,VALID,916.713,VALID,0.0,VALID,99.563,VALID,0.009,VALID,19.368,VALID,355.0,VALID,0.0,
2019-08-11, 02:19:07,VALID,916.692,VALID,0.0,VALID,99.553,VALID,0.0,VALID,19.348,VALID,350.0,VALID,0.0,
2019-08-11, 02:20:07,VALID,916.71,VALID,0.0,VALID,99.556,VALID,0.01,VALID,19.342,VALID,357.0,VALID,0.0,
2019-08-11, 02:21:07,VALID,916.713,VALID,0.0,VALID,99.55,VALID,0.012,VALID,19.329,VALID,345.0,VALID,0.0,
2019-08-11, 02:22:07,VALID,916.761,VALID,0.0,VALID,99.532,VALID,0.0,VALID,19.327,VALID,317.0,VALID,0.0,
2019-08-11, 02:23:07,VALID,916.748,VALID,0.0,VALID,99.508,VALID,0.021,VALID,19.32,VALID,342.0,VALID,0.0,
2019-08-11, 02:24:07,VALID,916.716,VALID,0.0,VALID,99.522,VALID,-0.004,VALID,19.332,VALID,351.0,VALID,0.0,
2019-08-11, 02:25:07,VALID,916.679,VALID,0.0,VALID,99.521,VALID,0.007,VALID,19.335,VALID,22.0,VALID,0.0,
2019-08-11, 02:26:07,VALID,916.619,VALID,0.0,VALID,99.513,VALID,0.014,VALID,19.319,VALID,338.0,VALID,0.0,
2019-08-11, 02:27:07,VALID,916.566,VALID,0.0,VALID,99.521,VALID,0.018,VALID,19.329,VALID,347.0,VALID,0.0,
2019-08-11, 02:28:07,VALID,916.541,VALID,0.0,VALID,99.526,VALID,0.021,VALID,19.343,VALID,330.0,VALID,0.0,
2019-08-11, 02:29:07,VALID,916.528,VALID,0.0,VALID,99.531,VALID,0.016,VALID,19.354,VALID,13.0,VALID,0.0,
2019-08-11, 02:30:07,VALID,916.527,VALID,0.0,VALID,99.533,VALID,0.009,VALID,19.366,VALID,340.0,VALID,0.0,
2019-08-11, 02:31:07,VALID,916.529,VALID,0.0,VALID,99.529,VALID,0.009,VALID,19.359,VALID,360.0,VALID,0.0,
2019-08-11, 02:32:07,VALID,916.521,VALID,0.0,VALID,99.521,VALID,0.019,VALID,19.356,VALID,6.0,VALID,0.0,
2019-08-11, 02:33:07,VALID,916.543,VALID,0.0,VALID,99.505,VALID,0.009,VALID,19.362,VALID,6.0,VALID,0.0,
2019-08-11, 02:34:07,VALID,916.542,VALID,0.0,VALID,99.489,VALID,0.012,VALID,19.343,VALID,7.0,VALID,0.0,
2019-08-11, 02:35:07,VALID,916.532,VALID,0.0,VALID,99.477,VALID,0.005,VALID,19.307,VALID,12.0,VALID,0.0,
2019-08-11, 02:36:07,VALID,916.509,VALID,0.0,VALID,99.442,VALID,0.014,VALID,19.297,VALID,5.0,VALID,0.0,
2019-08-11, 02:37:07,VALID,916.513,VALID,0.0,VALID,99.446,VALID,0.029,VALID,19.285,VALID,354.0,VALID,0.0,
2019-08-11, 02:38:07,VALID,916.5,VALID,0.0,VALID,99.426,VALID,0.013,VALID,19.285,VALID,346.0,VALID,0.0,
2019-08-11, 02:39:07,VALID,916.511,VALID,0.0,VALID,99.418,VALID,0.021,VALID,19.275,VALID,5.0,VALID,0.0,
2019-08-11, 02:40:07,VALID,916.506,VALID,0.0,VALID,99.422,VALID,0.024,VALID,19.272,VALID,22.0,VALID,0.0,
2019-08-11, 02:41:07,VALID,916.481,VALID,0.0,VALID,99.391,VALID,0.003,VALID,19.264,VALID,23.0,VALID,0.0,
2019-08-11, 02:42:07,VALID,916.449,VALID,0.0,VALID,99.392,VALID,0.002,VALID,19.252,VALID,15.0,VALID,0.0,
2019-08-11, 02:43:07,VALID,916.475,VALID,0.0,VALID,99.376,VALID,0.011,VALID,19.253,VALID,4.0,VALID,0.0,
2019-08-11, 02:44:07,VALID,916.477,VALID,0.0,VALID,99.347,VALID,0.019,VALID,19.24,VALID,4.0,VALID,0.0,
2019-08-11, 02:45:07,VALID,916.468,VALID,0.0,VALID,99.332,VALID,0.024,VALID,19.223,VALID,5.0,VALID,0.0,
2019-08-11, 02:46:07,VALID,916.446,VALID,0.0,VALID,99.323,VALID,0.011,VALID,19.21,VALID,360.0,VALID,0.0,
2019-08-11, 02:47:07,VALID,916.413,VALID,0.0,VALID,99.315,VALID,0.017,VALID,19.212,VALID,355.0,VALID,0.0,
2019-08-11, 02:48:07,VALID,916.43,VALID,0.0,VALID,99.331,VALID,0.015,VALID,19.216,VALID,355.0,VALID,0.0,
2019-08-11, 02:49:07,VALID,916.451,VALID,0.0,VALID,99.292,VALID,0.019,VALID,19.212,VALID,354.0,VALID,0.0,
2019-08-11, 02:50:07,VALID,916.462,VALID,0.0,VALID,99.244,VALID,0.008,VALID,19.198,VALID,343.0,VALID,0.0,
2019-08-11, 02:51:07,VALID,916.426,VALID,0.0,VALID,99.262,VALID,0.023,VALID,19.178,VALID,316.0,VALID,0.0,
2019-08-11, 02:52:07,VALID,916.374,VALID,0.0,VALID,99.247,VALID,0.019,VALID,19.152,VALID,20.0,VALID,0.0,
2019-08-11, 02:53:07,VALID,916.354,VALID,0.0,VALID,99.244,VALID,0.015,VALID,19.14,VALID,47.0,VALID,0.0,
2019-08-11, 02:54:07,VALID,916.309,VALID,0.0,VALID,99.233,VALID,0.027,VALID,19.147,VALID,109.0,VALID,0.0,
2019-08-11, 02:55:07,VALID,916.32,VALID,0.0,VALID,99.266,VALID,0.012,VALID,19.181,VALID,133.0,VALID,0.0,
2019-08-11, 02:56:07,VALID,916.309,VALID,0.0,VALID,99.249,VALID,0.008,VALID,19.183,VALID,154.0,VALID,0.0,
2019-08-11, 02:57:07,VALID,916.285,VALID,0.0,VALID,99.242,VALID,0.011,VALID,19.171,VALID,215.0,VALID,0.0,
2019-08-11, 02:58:07,VALID,916.261,VALID,0.0,VALID,99.243,VALID,0.01,VALID,19.164,VALID,205.0,VALID,0.0,
2019-08-11, 02:59:07,VALID,916.327,VALID,0.0,VALID,99.217,VALID,0.036,VALID,19.13,VALID,183.0,VALID,0.0,
2019-08-11, 03:00:07,VALID,916.337,VALID,0.0,VALID,99.232,VALID,0.026,VALID,19.11,VALID,184.0,VALID,0.0,
2019-08-11, 03:01:07,VALID,916.335,VALID,0.0,VALID,99.242,VALID,0.019,VALID,19.094,VALID,184.0,VALID,0.0,
2019-08-11, 03:02:07,VALID,916.364,VALID,0.0,VALID,99.256,VALID,0.016,VALID,19.097,VALID,184.0,VALID,0.0,
2019-08-11, 03:03:07,VALID,916.364,VALID,0.0,VALID,99.275,VALID,0.03,VALID,19.094,VALID,184.0,VALID,0.0,
2019-08-11, 03:04:07,VALID,916.35,VALID,0.0,VALID,99.198,VALID,-0.015,VALID,19.036,VALID,184.0,VALID,0.0,
2019-08-11, 03:05:07,VALID,916.354,VALID,0.0,VALID,99.18,VALID,-0.012,VALID,18.988,VALID,184.0,VALID,0.0,
2019-08-11, 03:06:07,VALID,916.405,VALID,0.0,VALID,99.102,VALID,-0.017,VALID,18.93,VALID,184.0,VALID,0.0,
2019-08-11, 03:07:07,VALID,916.392,VALID,0.0,VALID,99.048,VALID,-0.0,VALID,18.898,VALID,184.0,VALID,0.0,
2019-08-11, 03:08:07,VALID,916.356,VALID,0.0,VALID,99.014,VALID,-0.026,VALID,18.884,VALID,104.0,VALID,0.0,
2019-08-11, 03:09:07,VALID,916.345,VALID,0.0,VALID,98.839,VALID,-0.007,VALID,18.771,VALID,13.0,VALID,0.0,
2019-08-11, 03:10:07,VALID,916.369,VALID,0.0,VALID,98.801,VALID,-0.008,VALID,18.738,VALID,13.0,VALID,0.0,
2019-08-11, 03:11:07,VALID,916.349,VALID,0.0,VALID,98.919,VALID,-0.0,VALID,18.764,VALID,13.0,VALID,0.0,
2019-08-11, 03:12:07,VALID,916.34,VALID,0.0,VALID,98.918,VALID,0.016,VALID,18.762,VALID,13.0,VALID,0.0,
2019-08-11, 03:13:07,VALID,916.367,VALID,0.0,VALID,98.929,VALID,0.003,VALID,18.744,VALID,13.0,VALID,0.0,
2019-08-11, 03:14:07,VALID,916.329,VALID,0.0,VALID,98.979,VALID,0.003,VALID,18.74,VALID,20.0,VALID,0.0,
2019-08-11, 03:15:07,VALID,916.274,VALID,0.0,VALID,98.855,VALID,-0.011,VALID,18.626,VALID,28.0,VALID,0.0,
2019-08-11, 03:16:07,VALID,916.264,VALID,0.0,VALID,98.636,VALID,-0.02,VALID,18.506,VALID,33.0,VALID,0.0,
2019-08-11, 03:17:07,VALID,916.311,VALID,0.0,VALID,98.691,VALID,0.002,VALID,18.529,VALID,35.0,VALID,0.0,
2019-08-11, 03:18:07,VALID,916.328,VALID,0.0,VALID,98.848,VALID,-0.012,VALID,18.56,VALID,35.0,VALID,0.0,
2019-08-11, 03:19:07,VALID,916.301,VALID,0.0,VALID,98.946,VALID,0.005,VALID,18.578,VALID,35.0,VALID,0.0,
2019-08-11, 03:20:07,VALID,916.304,VALID,0.0,VALID,98.928,VALID,-0.007,VALID,18.533,VALID,35.0,VALID,0.0,
2019-08-11, 03:21:07,VALID,916.329,VALID,0.0,VALID,98.917,VALID,-0.01,VALID,18.486,VALID,36.0,VALID,0.0,
2019-08-11, 03:22:07,VALID,916.361,VALID,0.0,VALID,98.955,VALID,-0.01,VALID,18.46,VALID,36.0,VALID,0.0,
2019-08-11, 03:23:07,VALID,916.378,VALID,0.0,VALID,99.05,VALID,0.001,VALID,18.477,VALID,36.0,VALID,0.0,
2019-08-11, 03:24:07,VALID,916.392,VALID,0.0,VALID,99.139,VALID,-0.014,VALID,18.526,VALID,13.0,VALID,0.0,
2019-08-11, 03:25:07,VALID,916.376,VALID,0.0,VALID,99.213,VALID,-0.024,VALID,18.589,VALID,342.0,VALID,0.0,
2019-08-11, 03:26:07,VALID,916.365,VALID,0.0,VALID,99.247,VALID,-0.018,VALID,18.613,VALID,339.0,VALID,0.0,
2019-08-11, 03:27:07,VALID,916.333,VALID,0.0,VALID,99.253,VALID,-0.013,VALID,18.603,VALID,340.0,VALID,0.0,
2019-08-11, 03:28:07,VALID,916.312,VALID,0.0,VALID,99.231,VALID,-0.006,VALID,18.562,VALID,6.0,VALID,0.0,
2019-08-11, 03:29:07,VALID,916.296,VALID,0.0,VALID,99.212,VALID,-0.007,VALID,18.558,VALID,11.0,VALID,0.0,
2019-08-11, 03:30:07,VALID,916.291,VALID,0.0,VALID,99.259,VALID,-0.005,VALID,18.578,VALID,11.0,VALID,0.0,
2019-08-11, 03:31:07,VALID,916.292,VALID,0.0,VALID,99.259,VALID,0.006,VALID,18.609,VALID,11.0,VALID,0.0,
2019-08-11, 03:32:07,VALID,916.295,VALID,0.0,VALID,99.275,VALID,-0.013,VALID,18.625,VALID,10.0,VALID,0.0,
2019-08-11, 03:33:07,VALID,916.289,VALID,0.0,VALID,99.269,VALID,-0.0,VALID,18.622,VALID,325.0,VALID,0.0,
2019-08-11, 03:34:07,VALID,916.267,VALID,0.0,VALID,99.26,VALID,-0.019,VALID,18.622,VALID,330.0,VALID,0.0,
2019-08-11, 03:35:07,VALID,916.263,VALID,0.0,VALID,99.225,VALID,-0.024,VALID,18.592,VALID,343.0,VALID,0.0,
2019-08-11, 03:36:07,VALID,916.296,VALID,0.0,VALID,99.177,VALID,-0.0,VALID,18.58,VALID,343.0,VALID,0.0,
2019-08-11, 03:37:07,VALID,916.316,VALID,0.0,VALID,99.285,VALID,-0.029,VALID,18.665,VALID,343.0,VALID,0.0,
2019-08-11, 03:38:07,VALID,916.297,VALID,0.0,VALID,99.351,VALID,-0.027,VALID,18.712,VALID,329.0,VALID,0.0,
2019-08-11, 03:39:07,VALID,916.279,VALID,0.0,VALID,99.342,VALID,-0.015,VALID,18.725,VALID,259.0,VALID,0.0,
2019-08-11, 03:40:07,VALID,916.261,VALID,0.0,VALID,99.37,VALID,-0.014,VALID,18.73,VALID,253.0,VALID,0.0,
2019-08-11, 03:41:07,VALID,916.279,VALID,0.0,VALID,99.388,VALID,0.003,VALID,18.724,VALID,248.0,VALID,0.0,
2019-08-11, 03:42:07,VALID,916.251,VALID,0.0,VALID,99.41,VALID,-0.014,VALID,18.705,VALID,246.0,VALID,0.0,
2019-08-11, 03:43:07,VALID,916.239,VALID,0.0,VALID,99.401,VALID,-0.007,VALID,18.62,VALID,246.0,VALID,0.0,